Location: Unspecified
(40.7945°N, 0.0000°E)
Time: 13:14:22
(UTC+00:00)

Courier 1B - Pass Details

Date: 29 January 2021
Orbit: 962 x 1209 km, 28.3° (Epoch: 07 March)

Event Time Altitude Azimuth Distance (km) Brightness Sun altitude
Rises 23:10:50 0° 250° (WSW) 3,837 - -63.3°
Reaches altitude 10° 23:14:01 10° 239° (WSW) 2,840 - -63.6°
Maximum altitude 23:19:41 28° 183° (S) 1,788 - -64.2°
Drops below altitude 10° 23:25:08 10° 127° (SE) 2,721 - -64.7°
Sets 23:28:06 0° 116° (ESE) 3,649 - -64.9°
